Location: College Park
(38.9810°N, 76.9370°W)
Time: 09:09:12
(UTC-05:00)

OTV 5 (USA 277) - Pass Details

Date: 16 November 2017
Orbit: 404 x 417 km, 43.0° (Epoch: 07 September)

Event Time Altitude Azimuth Distance (km) Brightness Sun altitude
Exits shadow 05:08:57 40° 12° (NNE) 603 ? -20.0°
Drops below altitude 10° 05:11:59 10° 78° (ENE) 1,455 ? -19.4°
Sets 05:14:09 0° 86° (E) 2,313 ? -19.0°
